When you browse on this site, cookies collect data to enhance your experience and personalize the content and advertising you see.
Visit our Privacy Policy to learn more. By continuing to use the site, you agree to this use of cookies and data.
  • In Portugal
  • List of Countries
  • For 7 days
  • Water Temperature
  • Satellite Maps
  • Weather Map
  • Weather Widgets
  • user-avatar
    Login

    Hourly Weather Mayrhofen

    Today, 21 March, Thursday

    Time Temperature Precipitation Wind Pressure Humidity
    00:00 -9°C° 0 mm 1 mps 622 mmHg 66%
    01:00 -8°C° 0 mm 1 mps 622 mmHg 62%
    02:00 -8°C° 0 mm 1 mps 622 mmHg 58%
    03:00 -8°C° 0 mm 1 mps 622 mmHg 55%
    04:00 -8°C° 0 mm 1 mps 622 mmHg 52%
    05:00 -8°C° 0 mm 2 mps 622 mmHg 49%
    06:00 -8°C° 0 mm 2 mps 622 mmHg 47%
    07:00 -6°C° 0 mm 2 mps 623 mmHg 46%
    08:00 -4°C° 0 mm 2 mps 624 mmHg 50%
    09:00 -1°C° 0 mm 2 mps 624 mmHg 54%
    10:00 +3°C° 0 mm 2 mps 625 mmHg 58%
    11:00 +4°C° 0 mm 2 mps 625 mmHg 62%
    12:00 +6°C° 0 mm 1 mps 625 mmHg 66%
    13:00 +6°C° 0 mm 2 mps 626 mmHg 71%
    14:00 +6°C° 0 mm 2 mps 625 mmHg 71%
    15:00 +7°C° 0 mm 1 mps 625 mmHg 71%
    16:00 +7°C° 0 mm 1 mps 625 mmHg 71%
    17:00 +5°C° 0 mm 1 mps 624 mmHg 66%
    18:00 +2°C° 0 mm 1 mps 623 mmHg 60%
    19:00 0°C° 0 mm 1 mps 623 mmHg 55%
    20:00 -3°C° 0 mm 2 mps 623 mmHg 52%
    21:00 -3°C° 0 mm 2 mps 623 mmHg 48%
    22:00 -4°C° 0 mm 2 mps 623 mmHg 45%
    23:00 -4°C° 0 mm 2 mps 623 mmHg 44%

    Tomorrow, 22 March, Friday

    Time Temperature Precipitation Wind Pressure Humidity
    00:00 -4°C° 0 mm 2 mps 623 mmHg 43%
    01:00 -4°C° 0 mm 2 mps 623 mmHg 42%
    02:00 -4°C° 0 mm 2 mps 622 mmHg 42%
    03:00 -4°C° 0 mm 2 mps 622 mmHg 42%
    04:00 -4°C° 0 mm 2 mps 622 mmHg 43%
    05:00 -4°C° 0 mm 2 mps 622 mmHg 42%
    06:00 -3°C° 0 mm 2 mps 623 mmHg 42%
    07:00 -3°C° 0 mm 2 mps 623 mmHg 42%
    08:00 +1°C° 0 mm 2 mps 624 mmHg 51%
    09:00 +4°C° 0 mm 2 mps 624 mmHg 61%
    10:00 +7°C° 0 mm 1 mps 625 mmHg 70%
    11:00 +8°C° 0 mm 1 mps 625 mmHg 68%
    12:00 +9°C° 0 mm 1 mps 625 mmHg 67%
    13:00 +10°C° 0 mm 1 mps 626 mmHg 65%
    14:00 +10°C° 0 mm 1 mps 625 mmHg 66%
    15:00 +9°C° 0 mm 0 mps 625 mmHg 66%
    16:00 +8°C° 0 mm 0 mps 625 mmHg 66%
    17:00 +6°C° 0 mm 0 mps 624 mmHg 68%
    18:00 +4°C° 0 mm 0 mps 623 mmHg 69%
    19:00 +1°C° 0 mm 0 mps 622 mmHg 70%
    20:00 +2°C° 0 mm 1 mps 622 mmHg 69%
    21:00 +1°C° 0 mm 1 mps 622 mmHg 67%
    22:00 +1°C° 0 mm 1 mps 622 mmHg 66%
    23:00 +1°C° 0 mm 1 mps 622 mmHg 64%

    Day after tomorrow, 23 March, Saturday

    Time Temperature Precipitation Wind Pressure Humidity
    00:00 +1°C° 0 mm 1 mps 622 mmHg 63%
    01:00 +1°C° 0 mm 1 mps 622 mmHg 61%
    02:00 0°C° 0 mm 1 mps 622 mmHg 61%
    03:00 0°C° 0 mm 1 mps 622 mmHg 61%
    04:00 0°C° 0 mm 1 mps 621 mmHg 62%
    05:00 0°C° 0 mm 1 mps 622 mmHg 62%
    06:00 0°C° 0 mm 1 mps 622 mmHg 63%
    07:00 0°C° 0 mm 1 mps 622 mmHg 64%
    08:00 +3°C° 0 mm 1 mps 622 mmHg 63%
    09:00 +5°C° 0 mm 1 mps 623 mmHg 63%
    10:00 +8°C° 0 mm 1 mps 624 mmHg 63%
    11:00 +9°C° 0 mm 1 mps 624 mmHg 60%
    12:00 +9°C° 0 mm 1 mps 624 mmHg 57%
    13:00 +10°C° 0 mm 1 mps 624 mmHg 54%
    14:00 +10°C° 0 mm 1 mps 624 mmHg 55%
    15:00 +10°C° 0 mm 1 mps 623 mmHg 57%
    16:00 +10°C° 0 mm 1 mps 623 mmHg 59%
    17:00 +7°C° 0 mm 1 mps 622 mmHg 67%
    18:00 +5°C° 0 mm 1 mps 622 mmHg 74%
    19:00 +3°C° 0 mm 1 mps 621 mmHg 82%
    20:00 +2°C° 0 mm 1 mps 621 mmHg 83%
    21:00 +2°C° 0 mm 1 mps 621 mmHg 85%
    22:00 +1°C° 0 mm 1 mps 621 mmHg 86%
    23:00 +1°C° 0 mm 1 mps 621 mmHg 84%

    24 March, Sunday

    Time Temperature Precipitation Wind Pressure Humidity
    00:00 +1°C° 0 mm 1 mps 621 mmHg 82%
    01:00 +1°C° 0 mm 1 mps 621 mmHg 81%
    02:00 +1°C° 0 mm 1 mps 621 mmHg 77%
    03:00 -1°C° 0 mm 2 mps 621 mmHg 74%
    04:00 -1°C° 0 mm 2 mps 620 mmHg 70%
    05:00 +1°C° 0 mm 1 mps 620 mmHg 67%
    06:00 +1°C° 0 mm 1 mps 620 mmHg 64%
    07:00 +1°C° 0 mm 1 mps 620 mmHg 61%
    08:00 +4°C° 0 mm 1 mps 621 mmHg 55%
    09:00 +5°C° 0 mm 0 mps 622 mmHg 50%
    10:00 +8°C° 0 mm 0 mps 623 mmHg 44%
    11:00 +9°C° 0 mm 0 mps 623 mmHg 45%
    12:00 +10°C° 0 mm 1 mps 623 mmHg 45%
    13:00 +11°C° 0 mm 1 mps 623 mmHg 46%
    14:00 +9°C° 0 mm 2 mps 622 mmHg 52%
    15:00 +9°C° 0 mm 2 mps 622 mmHg 57%
    16:00 +8°C° 0 mm 2 mps 621 mmHg 63%
    17:00 +7°C° 0.1 mm 2 mps 621 mmHg 73%
    18:00 +5°C° 0.1 mm 2 mps 621 mmHg 84%
    19:00 +3°C° 0.1 mm 2 mps 620 mmHg 94%
    20:00 +3°C° 0.1 mm 2 mps 620 mmHg 95%
    21:00 +3°C° 0.1 mm 2 mps 621 mmHg 95%
    22:00 +3°C° 0.1 mm 2 mps 621 mmHg 96%
    23:00 +2°C° 0.1 mm 2 mps 621 mmHg 97%

    25 March, Monday

    Time Temperature Precipitation Wind Pressure Humidity
    00:00 +2°C° 0.1 mm 2 mps 621 mmHg 97%
    01:00 +2°C° 0.1 mm 2 mps 620 mmHg 97%
    02:00 +1°C° 0 mm 2 mps 620 mmHg 97%
    03:00 +2°C° 0 mm 1 mps 620 mmHg 97%
    04:00 +1°C° 0 mm 1 mps 620 mmHg 96%
    05:00 +1°C° 0 mm 1 mps 620 mmHg 95%
    06:00 +1°C° 0 mm 1 mps 620 mmHg 94%
    07:00 -1°C° 0 mm 2 mps 620 mmHg 93%
    08:00 +1°C° 0 mm 2 mps 620 mmHg 90%
    09:00 +2°C° 0 mm 2 mps 621 mmHg 86%
    10:00 +2°C° 0 mm 2 mps 621 mmHg 83%
    11:00 +3°C° 0.1 mm 2 mps 621 mmHg 80%
    12:00 +3°C° 0.1 mm 2 mps 621 mmHg 77%
    13:00 +2°C° 0.1 mm 3 mps 621 mmHg 75%
    14:00 +2°C° 0.1 mm 3 mps 620 mmHg 76%
    15:00 +2°C° 0.1 mm 3 mps 620 mmHg 77%
    16:00 +1°C° 0.1 mm 3 mps 620 mmHg 79%
    17:00 0°C° 0.1 mm 3 mps 620 mmHg 83%
    18:00 -1°C° 0.1 mm 3 mps 620 mmHg 88%
    19:00 -2°C° 0.1 mm 3 mps 620 mmHg 92%
    20:00 -2°C° 0.1 mm 3 mps 620 mmHg 92%
    21:00 -4°C° 0.1 mm 3 mps 620 mmHg 91%
    22:00 -4°C° 0.1 mm 3 mps 621 mmHg 91%
    23:00 -5°C° 0.1 mm 3 mps 621 mmHg 91%

    26 March, Tuesday

    Time Temperature Precipitation Wind Pressure Humidity
    00:00 -5°C° 0.1 mm 3 mps 621 mmHg 92%
    01:00 -5°C° 0.1 mm 2 mps 620 mmHg 92%
    02:00 -5°C° 0 mm 2 mps 620 mmHg 91%
    03:00 -6°C° 0 mm 2 mps 620 mmHg 91%
    04:00 -6°C° 0 mm 2 mps 620 mmHg 90%
    05:00 -6°C° 0 mm 2 mps 621 mmHg 88%
    06:00 -6°C° 0 mm 2 mps 621 mmHg 86%
    07:00 -6°C° 0 mm 2 mps 621 mmHg 84%
    08:00 -5°C° 0 mm 3 mps 622 mmHg 74%
    09:00 -4°C° 0 mm 3 mps 622 mmHg 65%
    10:00 -2°C° 0 mm 3 mps 623 mmHg 55%
    11:00 -1°C° 0 mm 3 mps 623 mmHg 51%
    12:00 0°C° 0 mm 3 mps 623 mmHg 47%
    13:00 +1°C° 0 mm 3 mps 623 mmHg 43%
    14:00 +1°C° 0 mm 3 mps 623 mmHg 44%
    15:00 +1°C° 0 mm 3 mps 623 mmHg 45%
    16:00 +1°C° 0 mm 3 mps 623 mmHg 46%
    17:00 -1°C° 0 mm 2 mps 622 mmHg 57%
    18:00 -3°C° 0 mm 2 mps 622 mmHg 68%
    19:00 -5°C° 0 mm 2 mps 622 mmHg 79%
    20:00 -3°C° 0 mm 1 mps 622 mmHg 80%
    21:00 -3°C° 0 mm 1 mps 623 mmHg 81%
    22:00 -4°C° 0 mm 1 mps 623 mmHg 82%
    23:00 -4°C° 0 mm 1 mps 623 mmHg 76%
    Show more